sat.trackr.live / text

‹ back to catalog

STARLINK-34944

NORAD 65182 · 2025-175J

PAYLOAD ACTIVE UNKNOWN

§ Identity

Operator
Country
US
Launch date
2025-08-14
Launch site
AFWTR
Launch vehicle
Mass (kg)
RCS (m²)

Purposes: comms

External: N2YO · Heavens-Above · Gunter

§ Orbital elements

Epoch: 2026-09-20T21:24:37.894464Z

Period
93.91 min
Inclination
97.2837°
Eccentricity
0.0001240
Mean motion
15.33440733 rev/d
Perigee alt
464.7 km
Apogee alt
466.4 km
Semi-major
6,843.7 km
B*
4.1524e-4
RAAN
132.8780°
Arg perigee
80.9537°
Mean anomaly
279.1846°
Rev number
6,219

§ Raw data

STARLINK-349441 65182U 25175J   26263.89210526  .00013352  00000+0  41524-3 0  99962 65182  97.2837 132.8780 0001240  80.9537 279.1846 15.33440733 62196

JSON: /api/v1/satellites/65182 · /tle

For live sub-satellite position, see the globe view (requires WebGL).

§ Visibility from observer

Set your observer location to see the next 7 days of passes ≥ 10°. The values pass through the URL so the page stays shareable.

No JS? Fill the form by hand. The geolocation button needs JavaScript.